This demonstration page uses our WeatherBlox Daily Observations layout. Learn more.

Left ArrowRight Arrow

34.16533, -84.80231

Hourly Observations for December 13, 2017

Temp ( °F °C ) Dew Point ( °F °C ) Humidity (%) Winds ( mph kmh ) Pressure ( in mb ) Visibility ( mi km ) Precip ( " mm )
12:53 am 00:53 Clear 32 0 15 -9.4 50 50 VRB 6 9 30.05 1018 10 16 0.00 0.00
1:53 am 01:53 Clear 31 -0.6 14 -10 49 49 VRB 3 6 30.05 1018 10 16 0.00 0.00
2:53 am 02:53 Clear 29 -1.7 13 -10.6 51 51 VRB 3 6 30.07 1018 10 16 0.00 0.00
3:53 am 03:53 Clear 28 -2.2 13 -10.6 53 53 Calm 30.06 1018 10 16 0.00 0.00
4:53 am 04:53 Clear 27 -2.8 13 -10.6 55 55 Calm 30.07 1018 10 16 0.00 0.00
5:53 am 05:53 Clear 27 -2.8 13 -10.6 55 55 Calm 30.06 1018 10 16 0.00 0.00
6:53 am 06:53 Clear 25 -3.9 15 -9.4 66 66 Calm 30.07 1018 10 16 0.00 0.00
7:53 am 07:53 Sunny 26 -3.3 14 -10 60 60 Calm 30.09 1019 10 16 0.00 0.00
8:53 am 08:53 Sunny 30 -1.1 13 -10.6 49 49 Calm 30.09 1019 10 16 0.00 0.00
9:53 am 09:53 Sunny 33 0.6 11 -11.7 40 40 Calm 30.09 1019 10 16 0.00 0.00
10:53 am 10:53 Sunny 36 2.2 12 -11.1 37 37 VRB 3 6 30.08 1019 10 16 0.00 0.00
11:53 am 11:53 Sunny 38 3.3 10 -12.2 31 31 Calm 30.06 1018 10 16 0.00 0.00
12:53 pm 12:53 Sunny 43 6.1 10 -12.2 26 26 Calm 30.01 1016 10 16 0.00 0.00
1:53 pm 13:53 Sunny 47 8.3 11 -11.7 23 23 Calm 29.96 1014 10 16 0.00 0.00
2:53 pm 14:53 Sunny 48 8.9 11 -11.7 22 22 VRB 5 7 29.92 1013 10 16 0.00 0.00
3:53 pm 15:53 Sunny 49 9.4 13 -10.6 23 23 VRB 3 6 29.90 1012 10 16 0.00 0.00
4:53 pm 16:53 Sunny 48 8.9 15 -9.4 27 27 S 6 9 29.89 1012 10 16 0.00 0.00
5:53 pm 17:53 Clear 44 6.7 18 -7.8 35 35 S 6 9 29.87 1011 10 16 0.00 0.00
6:53 pm 18:53 Clear 41 5 21 -6.1 45 45 S 3 6 29.87 1012 10 16 0.00 0.00
7:53 pm 19:53 Clear 41 5 21 -6.1 45 45 S 5 7 29.86 1011 10 16 0.00 0.00
8:53 pm 20:53 Clear 35 1.7 25 -3.9 67 67 Calm 29.87 1012 10 16 0.00 0.00
9:53 pm 21:53 Clear 30 -1.1 24 -4.4 79 79 Calm 29.87 1012 10 16 0.00 0.00
10:53 pm 22:53 Clear 29 -1.7 25 -3.9 85 85 Calm 29.88 1012 10 16 0.00 0.00
11:53 pm 23:53 Clear 29 -1.7 24 -4.4 82 82 Calm 29.88 1012 10 16 0.00 0.00

Powered by AerisWeather